Location: Morlupo
(42.1333°N, 12.5000°E)
Time: 15:56:52
(UTC+00:00)

Cosmos 1464 Rocket - Pass Details

Date: 18 September 2020
Orbit: 953 x 1000 km, 82.9° (Epoch: 25 October)

Event Time Altitude Azimuth Distance (km) Brightness Sun altitude
Rises 17:56:01 0° 162° (SSE) 3,614 6.7 -8.6°
Reaches altitude 10° 17:58:39 10° 155° (SSE) 2,673 6.0 -9.1°
Maximum altitude 18:04:14 39° 89° (E) 1,399 4.4 -10.1°
Drops below altitude 10° 18:09:52 10° 22° (NNE) 2,701 6.2 -11.1°
Sets 18:12:32 0° 16° (NNE) 3,657 7.0 -11.6°
